{"data":{"norad_id":65276,"epoch":"2026-05-25T03:16:00.417216Z","epoch_age_seconds":60302,"freshness":"FRESH","line1":"1 65276U 25184D   26145.13611594  .00005652  00000+0  39536-3 0  9990","line2":"2 65276  97.4480 197.6440 0003108 127.5326 232.6184 15.05660374 42806","mean_motion":15.05660374,"eccentricity":0.0003108,"inclination_deg":97.448,"raan_deg":197.644,"arg_perigee_deg":127.5326,"mean_anomaly_deg":232.6184,"bstar":0.00039536,"rev_number":4280,"period_min":95.639097957691,"perigee_km":547.32622984901,"apogee_km":551.63243616161,"semimajor_km":6927.6163330053,"source":"CELESTRAK","updated_at":"2026-05-25T13:38:20.729921Z"}}